[[{"header":{"parameterUnit":"m.s-1","parameterCategory":1,"la1":30.2991,"la2":30.254,"lo1":-89.0895,"lo2":-89.0444,"dy":0.0017,"dx":0.0017,"nx":28,"ny":28,"refTime":"2024-10-19T21:00:00:Z","depth":0,"parameterNumber":2,"parameterNumberName":"U-component_of_WINDS"},"data":[0,0,0,0,0,0,0,0,0,0,0,0,0,0,0,0,0,0,0,0,0,0,0,0,0,0,0,0,0,0,0,0,0,0,0,0,0,0,0,0,0,0,0,0,0,0,0,0,0,0,0,0,0,0,0,0,0,0,-4.209,-4.2091,0,-4.2175,-4.2176,-4.2177,-4.2051,-4.2047,-4.2042,-4.2038,-4.2128,-4.2135,-4.2141,0,0,0,0,0,0,0,0,0,0,0,0,0,-4.1824,-4.1829,-4.209,-4.2091,-4.2092,-4.2175,-4.2176,-4.2177,-4.2052,-4.2047,-4.2041,-4.2036,-4.2126,-4.2134,-4.2142,0,0,0,0,0,0,0,0,0,0,0,0,0,-4.1927,-4.1831,-4.209,-4.204,-4.2036,-4.2174,-4.2176,-4.2177,-4.2053,-4.2047,-4.204,-4.2034,-4.2124,-4.2133,-4.2143,-4.2335,0,0,-4.2173,-4.2177,0,0,0,0,0,0,0,0,-4.1921,-4.1937,-4.2046,-4.2044,-4.204,-4.2096,-4.2114,-4.223,-4.2055,-4.2047,-4.2038,-4.2031,-4.2123,-4.2132,-4.2163,-4.2339,-4.2343,-4.2173,-4.2179,-4.2183,-4.2186,0,0,0,0,0,0,0,-4.1914,-4.1933,-4.2124,-4.2048,-4.2044,-4.2014,-4.2021,-4.2136,-4.2121,-4.2047,-4.2038,-4.205,-4.212,-4.2154,-4.2164,-4.2344,-4.2173,-4.2182,-4.2188,-4.2192,-4.2683,-4.269,0,0,0,0,0,0,-4.1913,-4.1927,-4.2121,-4.2126,-4.1963,-4.2024,-4.2032,-4.2084,-4.2119,-4.2118,-4.2055,-4.2044,-4.214,-4.2153,-4.2167,-4.2395,-4.2183,-4.2193,-4.2198,-4.2676,-4.2685,-4.2693,0,0,0,0,0,0,-4.1908,-4.1931,-4.2118,-4.2024,-4.2046,-4.2036,-4.2095,-4.209,-4.2123,-4.2126,-4.2123,-4.2092,-4.2136,-4.2153,-4.2294,-4.2397,-4.2197,-4.2206,-4.2668,-4.2679,-4.2689,-4.2854,0,0,0,0,0,0,-4.19,-4.193,-4.2003,-4.2027,-4.2051,-4.2243,-4.2101,-4.2096,-4.214,-4.2125,-4.216,-4.2159,-4.2132,-4.228,-4.2304,-4.2406,-4.2213,-4.2659,-4.2673,-4.2685,-4.2839,-4.2869,-4.2894,0,0,0,0,0,-4.1891,-4.2046,-4.2007,-4.2031,-4.2142,-4.2249,-4.2263,-4.2228,-4.2149,-4.2222,-4.2223,-4.2158,-4.2381,-4.2296,-4.2321,-4.2428,-4.2652,-4.2669,-4.2684,-4.2827,-4.2863,-4.2894,0,0,0,0,0,0,-4.2036,-4.2049,-4.2005,-4.2172,-4.2211,-4.2228,-4.232,-4.2267,-4.233,-4.2314,-4.2268,-4.2277,-4.2429,-4.2442,-4.2347,-4.2617,-4.2503,-4.2526,-4.2603,-4.2637,-4.2664,-4.2659,-4.2221,0,0,0,0,0,-4.2086,-4.2172,-4.2179,-4.2326,-4.2347,-4.233,-4.2376,-4.2345,-4.2383,-4.24,-4.2411,-4.2452,-4.2531,-4.2584,-4.2657,-4.2839,-4.2846,-4.2926,-4.2953,-4.2976,-4.2996,-4.3095,-4.3131,-4.2746,-4.2746,-4.2746,0,0,-4.2193,-4.2211,-4.2268,-4.2355,-4.2381,-4.2472,-4.2345,-4.2446,-4.2514,-4.2415,-4.2549,-4.2559,-4.2601,-4.2764,-4.2837,-4.278,-4.3104,-4.2996,-4.3014,-4.3023,-4.3116,-4.3152,-4.3185,-4.2757,-4.2755,-4.2753,0,0,-4.2435,-4.2456,-4.2581,-4.261,-4.265,-4.2638,-4.2668,-4.2693,-4.2696,-4.2829,-4.2758,-4.2837,-4.2974,-4.3007,-4.3042,-4.3296,-4.3239,-4.3321,-4.3466,-4.3563,-4.3593,-4.362,-4.3713,-4.3746,-4.334,-4.3341,-4.3341,0,-4.2563,-4.2696,-4.2653,-4.2759,-4.28,-4.2713,-4.2841,-4.287,-4.2934,-4.2965,-4.29,-4.307,-4.3092,-4.3262,-4.3324,-4.3354,-4.3389,-4.3318,-4.3592,-4.3618,-4.3643,-4.3731,-4.3765,-4.3351,-4.335,-4.3349,-4.3348,0,-4.2853,-4.2946,-4.3043,-4.3105,-4.3156,-4.3273,-4.3248,-4.3305,-4.3269,-4.3264,-4.3402,-4.3425,-4.3502,-4.3539,-4.3505,-4.3705,-4.3669,-4.3599,-4.3485,-4.369,-4.3772,-4.3805,-4.3365,-4.3361,-4.3358,-4.3356,0,0,-4.3191,-4.3226,-4.3262,-4.329,-4.3327,-4.3399,-4.3512,-4.3585,-4.3637,-4.3682,-4.3777,-4.3894,-4.383,-4.387,-4.3839,-4.3923,-4.4125,-4.3843,-4.3843,-4.3897,-4.4349,-4.4404,-4.4443,-4.4086,-4.4092,-4.4097,-4.4346,0,-4.3433,-4.3627,-4.3591,-4.378,-4.3867,-4.3785,-4.3883,-4.3918,-4.3915,-4.3989,-4.3986,-4.4071,-4.3978,-4.4002,-4.4082,-4.4084,-4.4216,-4.4065,-4.4176,-4.4181,-4.4171,-4.4485,-4.4544,-4.4778,-4.4378,-4.4383,-4.4387,0,-4.3743,-4.38,-4.3998,-4.4022,-4.4057,-4.4146,-4.4211,-4.4282,-4.4319,-4.4312,-4.4356,-4.4309,-4.4422,-4.4304,-4.4461,-4.4359,-4.4402,-4.4409,-4.4418,-4.4429,-4.4299,-4.4508,-4.4851,-4.4888,-4.4436,-4.4432,-4.4429,0,-4.3973,-4.4098,-4.4233,-4.4259,-4.429,-4.4354,-4.4371,-4.4401,-4.4448,-4.4504,-4.4535,-4.4604,-4.4643,-4.4698,-4.4672,-4.4588,-4.4835,-4.4714,-4.4833,-4.4835,-4.4892,-4.4889,-4.525,-4.4915,-4.4914,-4.4913,-4.4913,0,-4.4249,-4.4375,-4.4337,-4.442,-4.4558,-4.4515,-4.4653,-4.4659,-4.4687,-4.4771,-4.4703,-4.4784,-4.4743,-4.4821,-4.4801,-4.4935,-4.4952,-4.4951,-4.4944,-4.4959,-4.4959,-4.4988,-4.4973,-4.4923,-4.4921,-4.4919,-4.4917,0,-4.453,-4.451,-4.4652,-4.4669,-4.4676,-4.4777,-4.4792,-4.4871,-4.4862,-4.497,-4.4993,-4.4981,-4.5069,-4.5047,-4.5143,-4.513,-4.5299,-4.5271,-4.5287,-4.5281,-4.5403,-4.5393,-4.5798,-4.5849,-4.5479,-4.5482,-4.5485,0,-4.471,-4.4804,-4.4831,-4.4882,-4.4903,-4.4986,-4.5033,-4.4993,-4.5045,-4.5095,-4.5168,-4.5249,-4.5313,-4.5458,-4.5459,-4.5533,-4.5508,-4.5644,-4.5518,-4.553,-4.5513,-4.5509,-4.5519,-4.567,-4.5674,-4.5678,-4.5681,0,-4.5031,-4.5016,-4.5086,-4.5153,-4.5211,-4.5262,-4.5306,-4.5352,-4.5316,-4.5378,-4.5467,-4.5516,-4.5614,-4.5697,-4.5764,-4.5782,-4.5728,-4.5719,-4.5752,-4.5769,-4.5775,-4.5776,-4.5358,-4.5711,-4.5708,-4.5706,-4.5704,-4.5703,-4.5269,-4.5349,-4.5381,-4.5461,-4.549,-4.5533,-4.5608,-4.5609,-4.5682,-4.5758,-4.5729,-4.5832,-4.5867,-4.5952,-4.5978,-4.6058,-4.6007,-4.6053,-4.6065,-4.6078,-4.6094,-4.576,-4.607,-4.6069,-4.6068,-4.6067,-4.6067,0,-4.5589,-4.5605,-4.5679,-4.5743,-4.5807,-4.5746,-4.5792,-4.585,-4.5941,-4.5977,-4.6041,-4.6144,-4.6224,-4.623,-4.6305,-4.6369,-4.6346,-4.639,-4.6387,-4.6392,-4.6134,-4.61,-4.6408,-4.6408,-4.6408,-4.6408,-4.6408,-4.6408,-4.5763,-4.5897,-4.5885,-4.6033,-4.6047,-4.6146,-4.6178,-4.6218,-4.6247,-4.6365,-4.6431,-4.6433,-4.6458,-4.6535,-4.6606,-4.6606,-4.6638,-4.6694,-4.6684,-4.6444,-4.641,-4.6378,-4.6346,-4.67,-4.67,-4.6936,-4.6938,-4.694]},{"header":{"parameterUnit":"m.s-1","parameterCategory":1,"la1":30.2991,"la2":30.254,"lo1":-89.0895,"lo2":-89.0444,"dy":0.0017,"dx":0.0017,"nx":28,"ny":28,"refTime":"2024-10-19T21:00:00:Z","depth":0,"parameterNumber":3,"parameterNumberName":"V-component_of_WINDS"},"data":[0,0,0,0,0,0,0,0,0,0,0,0,0,0,0,0,0,0,0,0,0,0,0,0,0,0,0,0,0,0,0,0,0,0,0,0,0,0,0,0,0,0,0,0,0,0,0,0,0,0,0,0,0,0,0,0,0,0,-3.3772,-3.3772,0,-3.3778,-3.3778,-3.3778,-3.3732,-3.3731,-3.3729,-3.3728,-3.3733,-3.3734,-3.3736,0,0,0,0,0,0,0,0,0,0,0,0,0,-3.3721,-3.3723,-3.3772,-3.3772,-3.3773,-3.3778,-3.3778,-3.3778,-3.3732,-3.3731,-3.3729,-3.3728,-3.3733,-3.3734,-3.3736,0,0,0,0,0,0,0,0,0,0,0,0,0,-3.3737,-3.3723,-3.3772,-3.375,-3.3748,-3.3778,-3.3778,-3.3778,-3.3732,-3.373,-3.3729,-3.3727,-3.3732,-3.3734,-3.3736,-3.3786,0,0,-3.3742,-3.3743,0,0,0,0,0,0,0,0,-3.3736,-3.3739,-3.3754,-3.3752,-3.375,-3.3752,-3.3761,-3.3781,-3.3733,-3.3739,-3.3728,-3.3726,-3.3741,-3.3742,-3.3747,-3.3787,-3.3787,-3.3742,-3.3743,-3.3744,-3.3745,0,0,0,0,0,0,0,-3.3735,-3.3738,-3.3774,-3.3754,-3.3752,-3.374,-3.374,-3.3765,-3.375,-3.3738,-3.3735,-3.3736,-3.374,-3.3745,-3.3747,-3.3787,-3.3742,-3.3744,-3.3745,-3.3746,-3.3866,-3.3867,0,0,0,0,0,0,-3.3737,-3.3738,-3.3774,-3.3775,-3.3738,-3.3742,-3.3742,-3.3753,-3.375,-3.3748,-3.3737,-3.3734,-3.3743,-3.3745,-3.3747,-3.3804,-3.3744,-3.3746,-3.3747,-3.3864,-3.3866,-3.3868,0,0,0,0,0,0,-3.3736,-3.3741,-3.3774,-3.3755,-3.3759,-3.3745,-3.3758,-3.3754,-3.376,-3.375,-3.3747,-3.3746,-3.3742,-3.3744,-3.3776,-3.3804,-3.3747,-3.3749,-3.3861,-3.3864,-3.3867,-3.3919,0,0,0,0,0,0,-3.3735,-3.3741,-3.376,-3.3756,-3.376,-3.3804,-3.376,-3.3756,-3.3764,-3.3759,-3.3757,-3.3755,-3.374,-3.3774,-3.3778,-3.3805,-3.375,-3.3859,-3.3863,-3.3866,-3.3915,-3.3924,-3.3931,0,0,0,0,0,-3.3733,-3.3775,-3.3761,-3.3766,-3.3784,-3.3806,-3.3808,-3.379,-3.3766,-3.3785,-3.3778,-3.3755,-3.38,-3.3777,-3.3782,-3.381,-3.3857,-3.3861,-3.3866,-3.3912,-3.3922,-3.3931,0,0,0,0,0,0,-3.3783,-3.3774,-3.3759,-3.3801,-3.3804,-3.3798,-3.3821,-3.3802,-3.3813,-3.3808,-3.3785,-3.3785,-3.3821,-3.3819,-3.3794,-3.3858,-3.3824,-3.383,-3.3857,-3.3867,-3.3875,-3.3874,-3.3752,0,0,0,0,0,-3.3799,-3.3818,-3.3809,-3.3847,-3.3849,-3.3835,-3.3844,-3.383,-3.3833,-3.3834,-3.3829,-3.3833,-3.3847,-3.3857,-3.387,-3.3915,-3.3913,-3.3936,-3.3944,-3.3951,-3.3956,-3.3977,-3.3987,-3.3883,-3.3883,-3.3883,0,0,-3.3833,-3.383,-3.3843,-3.3857,-3.3858,-3.3877,-3.3837,-3.3859,-3.3873,-3.3837,-3.3867,-3.3864,-3.3866,-3.3904,-3.392,-3.3903,-3.3984,-3.3957,-3.3962,-3.3963,-3.3983,-3.3993,-3.4001,-3.3886,-3.3885,-3.3885,0,0,-3.3902,-3.3903,-3.3933,-3.3935,-3.3937,-3.3927,-3.3934,-3.393,-3.3926,-3.3956,-3.3929,-3.3945,-3.3971,-3.3973,-3.3977,-3.4046,-3.4024,-3.4051,-3.4092,-3.4114,-3.4122,-3.4129,-3.4152,-3.416,-3.4056,-3.4056,-3.4056,0,-3.3943,-3.3971,-3.3952,-3.3975,-3.3981,-3.395,-3.3979,-3.3982,-3.3988,-3.3993,-3.3974,-3.4005,-3.4004,-3.4041,-3.4058,-3.4063,-3.4069,-3.4051,-3.4122,-3.4129,-3.4135,-3.4157,-3.4166,-3.4059,-3.4059,-3.4059,-3.4058,0,-3.402,-3.404,-3.4064,-3.407,-3.4079,-3.4106,-3.4089,-3.4101,-3.4086,-3.4078,-3.4107,-3.4105,-3.4116,-3.4124,-3.411,-3.4159,-3.4148,-3.4126,-3.4092,-3.4149,-3.4168,-3.4177,-3.4064,-3.4063,-3.4062,-3.4061,0,0,-3.4122,-3.4115,-3.4125,-3.4126,-3.4125,-3.4139,-3.4164,-3.4174,-3.4184,-3.4189,-3.4208,-3.423,-3.4209,-3.4215,-3.4201,-3.4219,-3.4271,-3.4195,-3.4194,-3.4207,-3.4323,-3.4338,-3.4348,-3.4258,-3.4259,-3.426,-3.4322,0,-3.4188,-3.423,-3.4212,-3.4255,-3.4272,-3.4242,-3.4263,-3.4264,-3.4257,-3.427,-3.4262,-3.4277,-3.425,-3.4252,-3.4269,-3.4262,-3.4294,-3.4257,-3.4274,-3.4275,-3.4273,-3.4358,-3.4375,-3.4433,-3.433,-3.4331,-3.4332,0,-3.4271,-3.4279,-3.4323,-3.4317,-3.4323,-3.4343,-3.435,-3.4363,-3.4363,-3.4356,-3.4362,-3.4343,-3.4366,-3.4333,-3.4363,-3.4338,-3.4344,-3.4341,-3.4343,-3.4343,-3.4306,-3.4359,-3.4451,-3.4459,-3.4344,-3.4343,-3.4342,0,-3.4339,-3.436,-3.4388,-3.4391,-3.4385,-3.4399,-3.4397,-3.4395,-3.4402,-3.4409,-3.4412,-3.4422,-3.4427,-3.4434,-3.4418,-3.4396,-3.445,-3.4416,-3.4444,-3.4444,-3.4456,-3.4455,-3.4549,-3.4463,-3.4462,-3.4462,-3.4462,0,-3.4413,-3.4441,-3.4418,-3.4435,-3.4465,-3.4445,-3.4475,-3.4469,-3.4468,-3.4483,-3.4458,-3.4473,-3.4452,-3.4465,-3.4452,-3.4478,-3.4481,-3.4476,-3.4472,-3.4477,-3.4477,-3.4479,-3.4474,-3.4465,-3.4464,-3.4464,-3.4463,0,-3.4493,-3.4479,-3.4508,-3.4499,-3.4498,-3.452,-3.4512,-3.4528,-3.4519,-3.4538,-3.4542,-3.4527,-3.4541,-3.4525,-3.4538,-3.453,-3.4564,-3.4556,-3.4564,-3.4561,-3.4589,-3.4586,-3.4686,-3.4697,-3.4606,-3.4607,-3.4607,0,-3.4541,-3.4561,-3.4555,-3.4563,-3.4562,-3.4576,-3.4583,-3.4563,-3.457,-3.4571,-3.4586,-3.4598,-3.4605,-3.4628,-3.4619,-3.4628,-3.4618,-3.4652,-3.4619,-3.4623,-3.4616,-3.4614,-3.4615,-3.4659,-3.466,-3.4661,-3.4661,0,-3.4627,-3.4618,-3.4628,-3.4635,-3.4643,-3.4648,-3.4651,-3.466,-3.4639,-3.4649,-3.4661,-3.4667,-3.468,-3.469,-3.4697,-3.4694,-3.4674,-3.4672,-3.4679,-3.4683,-3.4687,-3.4683,-3.4581,-3.467,-3.4669,-3.4668,-3.4668,-3.4667,-3.4691,-3.4707,-3.4704,-3.4715,-3.4715,-3.4718,-3.4731,-3.4723,-3.4734,-3.4741,-3.4729,-3.4745,-3.4743,-3.4749,-3.4749,-3.4761,-3.4746,-3.4757,-3.4759,-3.4761,-3.4764,-3.4686,-3.4763,-3.4762,-3.4762,-3.4762,-3.4762,0,-3.4774,-3.477,-3.4781,-3.4785,-3.4793,-3.4773,-3.4775,-3.4784,-3.4798,-3.4798,-3.4805,-3.482,-3.483,-3.4821,-3.4829,-3.484,-3.4831,-3.4843,-3.4841,-3.484,-3.4778,-3.4771,-3.485,-3.485,-3.485,-3.485,-3.485,-3.485,-3.4818,-3.4842,-3.4833,-3.4857,-3.4854,-3.4868,-3.4871,-3.4873,-3.4872,-3.4889,-3.4897,-3.4891,-3.4887,-3.4895,-3.4903,-3.49,-3.4903,-3.4918,-3.4912,-3.4854,-3.4845,-3.4837,-3.4829,-3.492,-3.492,-3.4972,-3.4973,-3.4973]}]]